Theta_e
308 308 308 309 306 306 308 308 308 307 306 306 306 306 306 306 305 306 306 306 306 305 305 305 309 313 313 313 313 314 317 323 323 324 324 321 320 320 321 319 319 319 319 319 319 319 318
307 307 310 306 306 306 307 307 307 306 306 305 305 305 305 305 305 304 306 306 305 305 306 306 308 312 313 312 309 309 312 322 323 324 322 321 321 318 319 318 319 318 318 319 318 318 318
307 310 306 307 305 307 307 306 305 305 305 305 305 305 305 305 305 305 305 305 305 305 306 306 307 310 313 312 310 314 318 322 323 324 322 322 321 318 318 320 316 318 320 319 318 318 318
307 306 306 306 307 306 306 305 304 304 304 304 304 304 304 304 304 304 305 305 305 305 305 306 307 310 315 311 311 313 314 321 321 322 322 322 322 320 319 318 318 319 318 321 318 318 317
307 306 306 305 306 305 305 305 304 304 304 303 304 304 303 304 304 304 303 305 305 305 305 306 307 309 313 311 312 312 312 313 319 321 322 321 322 321 320 320 319 318 319 321 320 317 318
305 306 305 305 305 305 305 304 304 304 303 303 303 303 303 303 304 304 304 304 302 305 305 305 307 312 311 312 311 311 312 312 316 319 322 323 324 322 321 320 323 321 320 318 319 316 315
305 304 304 305 305 305 304 304 304 304 304 304 303 303 303 303 304 305 304 302 301 302 305 305 309 310 312 311 312 312 312 311 319 320 324 323 325 326 324 320 318 317 320 320 318 315 313
305 304 304 306 305 304 304 304 304 304 303 304 303 302 303 303 304 304 304 303 301 302 303 304 306 311 312 312 313 313 312 314 320 324 321 325 325 322 323 323 323 321 321 319 314 312 313
304 303 303 304 304 304 303 304 304 303 302 302 302 302 302 303 304 303 303 302 301 302 304 305 307 312 313 312 314 314 312 316 319 321 320 321 320 321 322 322 324 321 319 316 315 312 310
303 302 303 304 304 303 302 303 303 302 303 303 304 304 303 304 304 304 302 302 302 303 297 308 308 312 313 313 314 312 314 316 318 319 317 317 313 320 320 321 319 317 313 313 313 313 315
302 302 302 302 304 301 303 302 302 303 304 305 305 304 304 304 304 304 303 303 303 303 289 307 311 312 313 314 312 313 312 314 317 317 314 316 314 317 319 318 314 315 311 312 311 310 309
302 302 303 304 303 300 302 302 303 304 305 304 306 305 303 304 302 303 303 303 302 299 307 312 312 313 313 314 314 313 315 312 314 315 313 313 312 312 312 311 312 311 309 307 307 307 307
302 302 303 303 302 301 303 301 303 304 305 303 304 304 303 304 302 303 303 303 298 297 308 313 314 315 313 316 316 316 315 314 317 319 318 314 312 311 311 312 311 309 310 306 305 304 309
301 303 302 301 302 301 300 302 301 304 304 303 303 303 303 303 304 303 302 300 302 309 310 314 315 314 318 315 317 316 314 314 312 313 314 314 316 312 311 312 313 311 309 307 309 309 309
301 302 301 301 300 300 301 301 301 303 304 303 302 303 303 303 303 302 305 305 307 308 308 316 315 317 316 315 316 316 314 313 312 310 311 309 311 311 311 310 310 311 307 307 306 303 303
301 302 301 300 300 301 301 301 301 302 303 304 302 302 303 303 303 303 305 308 307 304 308 312 316 315 315 314 317 314 314 312 311 310 309 309 313 313 312 311 310 310 307 308 299 301 308
301 302 300 300 300 299 299 299 300 301 303 304 301 300 302 303 303 301 306 309 307 308 313 313 312 312 312 312 314 313 313 311 310 310 310 309 310 315 313 312 312 311 309 307 306 305 308
301 302 300 300 299 298 298 298 299 301 303 304 297 297 302 303 299 304 310 309 305 310 311 312 309 311 311 310 311 312 311 310 308 308 311 309 307 315 314 308 308 309 309 306 302 303 308
300 301 300 300 299 298 298 298 299 300 302 304 298 299 303 304 308 309 307 309 309 313 313 312 309 309 309 310 311 310 310 309 308 309 310 308 305 303 307 308 307 310 309 306 305 302 299
300 300 300 300 299 298 297 297 298 300 302 304 298 300 300 304 307 309 310 312 313 310 311 309 308 309 309 311 309 311 310 310 309 310 312 308 305 305 305 305 305 306 309 307 306 303 306
299 300 301 299 299 298 297 297 297 299 303 305 299 303 305 303 309 310 311 313 313 313 310 309 310 311 312 313 313 311 309 309 310 313 309 307 305 305 306 308 305 307 309 308 304 309 305
299 299 301 300 299 298 297 297 296 298 301 303 304 306 304 304 306 307 308 311 312 312 312 312 312 312 311 312 312 312 309 309 311 308 309 305 304 304 304 307 308 308 308 308 308 309 309
299 299 300 300 299 299 297 296 296 297 298 299 300 303 306 304 305 307 308 311 312 311 312 312 311 312 313 312 309 307 307 306 307 308 308 307 305 303 305 306 308 311 309 308 309 308 310
299 298 300 299 299 299 298 296 296 296 297 298 299 301 306 305 305 307 309 311 312 311 312 312 312 312 312 309 309 308 307 306 307 306 306 307 306 305 304 306 312 310 310 309 310 310 309
298 298 299 300 298 299 298 297 296 296 296 297 297 300 305 308 305 306 309 311 310 309 312 312 311 310 308 311 311 311 313 312 312 311 310 310 312 311 311 305 307 314 314 316 314 315 312
298 298 298 300 298 298 298 296 296 296 296 296 297 300 302 307 307 308 310 309 308 309 310 311 310 308 309 310 311 313 314 313 316 316 312 312 312 313 312 311 315 315 313 313 313 317 314
298 298 297 299 298 297 298 296 295 295 295 296 296 298 299 306 306 308 306 308 308 308 310 312 312 310 308 309 311 310 312 312 314 317 316 316 316 314 312 311 310 309 309 313 320 320 313
296 297 298 298 298 296 298 296 295 295 295 295 296 298 298 302 304 307 310 310 308 309 311 309 310 309 309 311 309 309 310 311 312 312 314 315 316 314 313 313 311 309 314 319 315 311 310
296 297 297 298 298 296 297 295 297 297 295 295 296 296 297 298 303 303 304 306 308 309 310 308 311 310 311 312 307 310 313 312 311 313 310 315 311 312 309 309 308 308 310 312 309 308 308
Wind_Speed
19 20 21 21 26 24 24 25 25 23 24 24 24 24 22 23 22 21 17 16 16 17 19 19 18 18 9 5 8 5 5 17 23 26 22 8 5 5 6 7 3 3 2 4 4 6 4
20 20 20 26 23 25 26 26 24 23 24 24 23 23 22 22 21 19 16 16 16 18 19 17 18 16 5 8 10 14 14 22 22 23 16 11 8 6 5 3 8 4 7 6 4 4 3
21 20 23 22 26 25 26 25 24 24 24 24 23 21 21 20 19 18 16 17 16 17 17 17 16 13 6 13 4 6 7 25 24 21 9 15 7 6 3 3 5 3 3 1 4 3 5
21 23 25 25 25 27 24 25 25 24 24 23 23 19 20 19 19 17 17 19 17 17 16 17 15 10 4 17 11 4 4 12 21 20 18 19 11 3 3 2 4 6 4 3 3 6 5
23 24 24 27 25 26 25 25 24 24 24 23 22 19 19 19 19 17 17 17 19 19 15 14 10 6 3 2 11 17 5 6 12 12 12 12 8 3 3 5 3 0 4 4 5 4 3
24 25 26 24 25 26 26 26 24 24 23 22 22 20 20 19 17 17 18 20 25 15 7 7 9 4 3 6 10 11 10 6 3 7 5 5 5 4 4 4 6 5 4 3 4 3 3
24 25 24 26 29 27 26 25 25 25 23 22 20 21 19 17 17 17 17 9 4 2 1 6 4 4 1 5 15 10 12 6 4 3 5 6 4 9 13 8 3 5 4 3 3 2 3
24 26 24 27 28 27 27 25 26 25 25 22 21 21 19 16 15 16 15 2 4 3 4 9 9 13 4 6 6 7 16 6 5 5 6 4 4 4 4 2 3 0 2 2 4 0 2
23 25 25 26 28 26 28 26 26 27 27 26 23 20 18 16 17 14 4 5 5 3 2 1 2 5 6 5 5 9 12 3 4 5 5 6 4 14 10 6 5 4 4 3 4 4 2
23 25 25 26 29 27 28 29 28 29 28 27 25 21 18 16 12 2 2 8 8 3 2 4 3 3 4 5 4 5 11 5 3 6 4 4 4 12 9 7 6 4 1 3 3 4 3
23 24 25 26 28 28 28 30 30 31 32 33 31 25 19 14 9 3 1 4 8 1 5 8 6 2 3 1 13 3 2 2 6 4 5 2 4 6 5 3 4 4 5 5 3 3 3
22 23 26 27 26 28 29 30 31 34 36 32 26 13 10 10 1 2 6 11 2 4 4 5 6 6 8 5 3 5 3 3 4 6 5 3 2 3 3 4 2 8 5 6 4 2 2
20 22 25 27 27 28 29 30 32 35 34 26 23 14 4 1 3 9 11 3 3 4 3 3 4 11 9 13 6 4 4 4 3 5 3 4 3 2 5 7 6 5 5 2 4 3 4
19 22 23 26 27 28 29 30 32 33 33 20 22 17 22 13 12 19 7 3 4 2 4 4 7 15 5 5 8 4 4 3 4 4 3 4 1 3 1 4 5 1 5 4 4 1 4
17 21 22 24 27 27 28 30 32 33 32 12 18 18 15 14 10 6 2 3 2 3 5 4 11 6 4 5 4 6 2 4 1 1 5 4 2 1 2 3 5 4 1 2 5 3 3
18 19 21 23 25 27 28 30 32 33 34 15 6 4 7 9 3 4 2 3 3 3 6 5 4 3 5 4 4 4 3 3 2 2 2 3 4 2 2 4 5 3 7 3 3 2 3
14 20 20 22 24 26 27 28 30 31 32 16 3 3 3 11 2 2 2 3 4 6 8 5 3 5 5 5 7 3 8 1 3 3 3 4 3 1 5 3 6 3 1 4 4 3 3
13 16 21 22 24 26 27 27 28 30 28 11 4 3 6 10 3 2 3 3 3 5 3 4 6 8 4 4 3 3 6 3 6 6 5 1 4 3 2 1 1 3 5 5 4 3 2
13 15 17 21 23 25 27 28 28 28 23 6 1 3 4 5 3 3 4 4 2 2 2 2 3 2 3 5 5 3 3 1 7 5 6 4 2 3 5 4 3 2 3 4 4 3 5
13 14 16 18 21 24 26 27 28 29 17 2 2 3 4 3 1 1 2 2 3 4 2 3 4 4 4 3 4 4 2 4 4 5 5 6 3 4 5 4 3 2 4 6 6 3 3
12 12 15 17 19 22 24 26 26 30 13 2 3 1 1 4 3 4 1 4 5 5 3 5 4 5 5 3 3 3 3 3 5 5 4 4 3 3 4 5 3 4 4 7 7 10 5
12 12 15 15 17 20 22 23 25 27 13 5 2 2 3 3 4 5 4 6 6 5 5 4 6 7 5 3 1 6 6 2 2 3 3 2 1 2 4 3 6 4 7 8 8 9 12
10 12 14 12 15 16 20 20 22 23 19 7 5 3 1 4 5 3 3 3 5 2 7 7 3 4 9 5 1 4 1 4 5 6 3 3 4 2 4 3 4 5 10 11 5 5 9
10 11 13 12 14 14 15 17 18 17 17 11 4 3 1 3 2 2 4 3 6 3 5 3 4 4 0 1 1 5 9 8 7 5 4 5 4 2 3 3 1 5 3 7 12 10 13
11 12 12 13 13 14 13 14 14 14 13 14 7 3 1 3 3 5 2 3 3 4 3 3 4 1 2 2 3 3 3 2 4 3 3 3 3 1 1 2 6 2 2 4 5 6 6
11 12 11 16 12 13 13 12 13 12 12 13 6 5 3 2 3 3 3 2 2 2 2 2 1 2 4 2 2 2 3 2 3 2 4 4 4 2 0 2 3 1 3 2 4 3 2
10 13 10 15 12 13 13 13 13 12 11 11 6 3 3 2 3 1 2 3 3 2 3 2 3 2 3 2 2 2 2 2 5 6 4 3 2 4 5 3 6 6 4 4 2 3 3
11 11 13 15 10 13 14 14 13 12 9 8 8 6 2 2 5 2 3 3 3 1 3 3 2 2 2 2 2 2 2 2 1 3 5 6 4 3 3 3 6 4 2 1 3 2 3
11 12 15 15 13 14 14 15 15 10 9 7 5 7 7 3 4 8 17 16 7 4 3 1 3 2 2 3 1 1 2 1 2 2 1 4 6 4 7 5 4 2 4 3 3 3 3
Wind_Direction
343 338 334 338 333 330 331 328 326 324 322 320 318 317 313 306 302 296 296 293 291 291 291 288 291 303 173 194 246 239 311 191 190 193 190 167 146 150 174 177 141 176 239 213 245 273 240
338 335 338 336 332 329 329 332 329 329 326 323 321 317 313 310 311 302 295 289 288 289 287 283 290 303 200 223 252 259 271 175 189 177 168 154 170 178 182 199 174 185 193 255 259 242 242
335 335 334 333 334 330 330 332 336 332 328 327 323 320 317 315 313 308 296 295 296 291 287 284 287 295 203 221 267 272 230 189 190 176 163 177 159 159 170 133 194 151 151 240 237 212 235
338 337 336 334 333 332 334 334 334 332 328 329 326 324 322 322 319 314 305 301 297 286 285 281 292 285 223 238 247 217 166 172 195 196 187 184 187 142 183 160 76 127 86 177 255 171 239
338 338 334 335 335 336 335 332 333 332 329 327 326 324 325 322 317 319 311 310 299 285 281 282 292 246 219 263 213 220 196 145 171 200 210 186 171 160 106 136 79 51 165 188 301 220 228
340 337 337 337 335 333 331 335 332 330 328 325 322 323 322 321 316 316 318 312 307 286 257 245 247 234 254 217 189 209 197 169 152 120 137 150 169 150 134 164 187 167 176 214 208 205 129
338 341 334 335 334 336 335 336 333 330 326 322 322 321 319 316 318 319 320 346 6 8 167 206 245 256 219 197 171 186 180 138 106 138 183 172 159 193 184 181 156 152 154 173 237 247 317
337 338 337 337 339 341 338 334 332 332 330 327 326 319 315 311 312 317 306 221 218 271 302 248 261 248 317 216 160 162 165 150 162 172 116 141 206 137 107 151 106 85 105 297 290 126 305
339 339 337 337 340 340 340 335 334 334 332 328 322 317 310 309 315 305 216 234 259 239 291 283 290 281 236 174 148 162 159 141 128 154 153 167 138 165 167 173 182 206 164 201 233 317 69
339 341 340 339 343 344 341 339 338 334 326 320 313 305 299 304 313 217 240 287 188 237 71 164 240 215 237 158 86 132 172 147 143 143 126 101 131 162 154 170 170 144 183 141 74 39 272
340 341 344 343 345 347 341 344 339 332 330 321 308 292 289 291 289 220 290 253 176 70 86 150 168 126 184 117 134 180 291 100 132 124 93 208 134 140 136 175 149 152 111 90 91 82 2
342 341 343 342 350 347 344 345 339 339 340 347 335 303 279 317 22 266 146 136 97 51 104 168 136 199 127 153 69 122 192 60 114 76 75 145 115 88 131 61 94 125 73 50 56 72 357
341 343 345 347 352 346 349 347 346 347 351 357 26 51 46 9 143 149 141 126 42 108 303 178 184 129 128 140 116 141 94 82 130 120 83 28 9 35 100 76 27 79 77 335 356 14 224
339 341 349 348 352 348 348 350 352 352 1 26 47 63 67 80 118 139 136 35 57 327 255 119 120 112 90 113 127 112 88 99 49 95 116 148 136 171 172 144 168 105 141 161 207 209 289
343 343 351 352 352 351 350 354 354 356 357 13 48 51 51 71 89 100 359 19 314 335 322 125 95 79 84 57 102 103 62 123 175 75 128 125 31 56 125 121 125 181 107 185 104 46 40
343 345 351 354 353 353 356 355 355 358 356 353 347 18 10 19 49 93 32 290 252 221 208 100 72 67 123 129 105 100 145 181 128 110 90 197 87 97 100 99 55 141 153 74 358 124 272
347 341 351 353 353 353 354 354 355 359 356 355 20 20 326 351 236 61 78 307 309 320 33 43 129 108 98 114 108 92 177 70 170 143 58 115 84 189 128 184 170 130 196 54 115 130 166
344 349 346 351 354 353 356 356 356 358 0 10 357 22 331 344 44 22 346 350 324 324 336 14 70 85 92 99 107 114 185 173 175 141 146 78 117 154 147 1 263 166 172 135 124 224 97
338 349 347 351 351 354 354 356 357 358 2 335 34 278 338 353 37 6 336 338 292 281 297 109 100 84 128 123 119 126 195 350 177 141 160 178 20 69 360 350 0 179 178 129 116 92 200
332 343 348 350 350 352 354 356 356 356 3 34 56 359 326 12 176 136 322 320 311 207 315 62 105 99 96 69 47 141 119 10 149 145 154 93 113 148 187 206 135 190 190 175 140 128 199
327 335 343 348 348 351 354 357 359 356 8 78 34 334 298 316 341 341 254 340 28 24 34 39 52 85 118 106 97 104 93 78 47 108 82 101 131 144 246 229 155 203 200 179 190 207 195
325 331 341 346 346 348 353 356 -0 1 7 73 51 355 357 285 296 334 335 357 42 15 28 15 75 43 71 106 178 176 129 148 173 59 84 15 168 100 305 289 206 246 221 212 215 231 257
324 328 339 347 344 345 349 354 1 7 15 25 357 336 318 292 323 8 333 28 13 28 31 44 109 90 53 6 352 119 149 125 145 135 118 102 123 73 284 338 318 284 227 195 198 203 221
322 324 336 340 341 340 345 349 356 6 11 15 342 301 333 290 327 292 344 51 43 28 116 356 23 77 96 171 145 53 59 73 75 49 112 127 107 112 251 6 269 243 141 181 203 237 212
323 323 326 334 336 337 339 344 347 354 358 356 336 285 297 278 259 309 179 128 110 54 77 74 32 355 287 55 71 59 23 53 42 58 99 128 123 145 234 221 277 272 225 138 173 279 217
320 320 320 331 328 328 327 336 337 342 345 340 337 345 284 285 230 296 302 200 139 94 64 66 347 358 55 73 80 175 180 171 155 114 42 82 98 121 265 241 247 221 135 126 107 293 250
323 321 312 325 313 320 318 323 324 325 331 330 300 342 295 263 267 311 229 215 145 120 128 141 152 53 43 73 101 170 231 117 169 174 170 165 180 211 228 269 284 254 247 142 49 311 304
317 320 316 309 306 314 310 314 313 311 315 324 300 303 334 293 278 274 312 327 8 94 132 201 87 9 61 103 154 210 183 230 174 187 172 177 177 188 171 216 267 201 102 132 226 278 275
305 319 314 304 308 313 306 307 303 299 304 289 269 296 321 247 283 298 282 265 257 303 127 58 143 147 160 101 174 100 224 127 164 234 182 204 189 184 188 216 254 268 247 264 184 215 282